User: anonymous   Login
Location: Oshawa
(43.9000°N, 78.8670°W)
Time: 14:46:26
(UTC-04:00)
Language:

Thor Agena Rocket - Orbit

View from above orbital plane
View from above orbital plane
View from above satellite
View from above satellite

Ground track
Ground track

The orbit data is extracted from the following two-line orbital elements,

1 00733U 64002A   18175.15229666  .00000031  00000-0  29295-4 0  9999
2 00733  99.1068  24.5696 0033848 176.9505 183.1890 14.32323400835557
Epoch (UTC): 24 June 2018 03:39:18
Eccentricity: 0.0033848
inclination: 99.1068°
perigee height: 760 km
apogee height: 808 km
right ascension of ascending node: 24.5696°
argument of perigee: 176.9505°
revolutions per day: 14.32323400
mean anomaly at epoch: 183.1890°
orbit number at epoch: 83555

The dashed part of the orbit path shows where the satellite is in the earth's shadow,  

DLR